Weather in Nerubaika

Ukraine / Kirovohrad Region     48°39′38″N   30°41′18″E
temp.,
°C
wind,
m/s
gust,
m/s
humid.,
%
clouds,
%
prec.,
mm/h
press.,
hPa
HPBL,
m
18 may, tue
tue1800:00+13s118963 0.0 100411
03:00+12sse23929 0.0 100330
06:00+12sse3594100 0.1 1002107
09:00+16s468294 0.1 1002467
12:00+19sse5668100 1.8 1000686
15:00+19s676979 3.8 9991209
18:00+17sse447310 1.4 999887
21:00+13sse359498 2.5 99896
19 may, wed
wed1900:00+11ssw37963 0.0 999142
03:00+10s23935 0.0 99947
06:00+9sse349826 0.0 1000118
09:00+13ssw448784 0.0 1001479
12:00+14w5684100 0.9 1003721
15:00+11wnw71192100 1.0 1005697
18:00+11nw61390100 0.4 1007755
21:00+11wnw4109187 0.4 1008370
20 may, thu
thu2000:00+9w4119497 0.0 1009314
03:00+10w499472 0.0 1009245
06:00+10wnw399597 0.0 1009293
09:00+13wnw3576100 0.0 1011499
12:00+17n2260100 0.0 1010998
15:00+17ssw3360100 0.3 1011936
18:00+14s5682100 0.6 1011399
21:00+12se2596100 2.2 1012213
21 may, fri
fri2100:00+11ene4694100 2.5 1012172
03:00+11ene3696100 2.6 1012167
06:00+11ene4997100 11.3 1012320
09:00+12ne51097100 18.3 1013497
12:00+12nne61096100 3.4 1013543
15:00+11nne71194100 4.9 1014659
18:00+11nne71293100 0.1 1014514
21:00+11nne71393100 0.3 1014495
22 may, sat
sat2200:00+11nne6139374 0.1 1014466
03:00+10n61295100 0.1 1013393
06:00+10n61196100 0.0 1013371
09:00+13n71188100 0.0 1013475
12:00+18nne687695 0.0 1013882
15:00+18nne5674100 0.0 10131060
18:00+17nne468691 0.0 1013472
21:00+14ne339220 0.1 101348